Flag for Pakistan Weather past 2 weeks in Peshawar, Pakistan

Now
73 °F

Passing clouds.


Feels Like: 74 °F
Forecast: 76 / 97 °F
Wind: 5 mph from Southwest

Location: Peshawar Airport

Current Time: Aug 30, 2015 at 11:43:46 PM

Latest Report: Aug 30, 2015 at 11:00 PM


Visibility: 2 mi

Pressure: 29.71 "Hg

Humidity: 78%

Dew point: 66 °F

Location of PeshawarLocation

Historic Weather in Peshawar — Graph

°F

Peshawar temperature yesterday

Maximum temperature yesterday: 97 °F (at 3:00 PM)
Minimum temperature yesterday: 79 °F (at 4:00 AM)
Average temperature yesterday: 87 °F

Past Weeks' High & Low Weather Summary

 TemperatureHumidityPressure
High99 °F (Aug 18, 3:00 PM)94% (Aug 20, 11:00 PM)30.24 "Hg (Aug 20, 11:00 PM)
Low70 °F (Aug 17, 6:00 AM)41% (Aug 25, 5:00 PM)29.53 "Hg (Aug 18, 6:00 PM)
Average85 °F63%29.63 "Hg
* Reported Aug 15 10:00 PM — Aug 30 10:00 PM, Peshawar, Weather by CustomWeather, © 2015

Note: Actual official high and low records may vary slightly from our data, if they occured in-between our weather recording intervals... More about our weather records

Advertising

Peshawar weather history for previous 24 hours

 ConditionsComfort  
Time TempWeatherWind HumidityBarometerVisibility
10:00 PM
Sun, Aug 30
75 °FHaze.7 mph74%29.68 "Hg2 mi
9:00 PM75 °FHaze.9 mph74%29.71 "Hg2 mi
8:00 PM75 °FPassing clouds.12 mph74%29.65 "Hg2 mi
7:00 PM77 °FPassing clouds.12 mph69%29.62 "Hg2 mi
6:00 PM77 °FScattered clouds.14 mph69%29.62 "Hg2 mi
5:00 PM77 °FThunderstorms. Broken clouds.18 mph69%29.59 "Hg2 mi
4:00 PM81 °FThunderstorms. Broken clouds.25 mph70%29.62 "Hg2 mi
3:00 PM84 °FThunderstorms. Broken clouds.30 mph66%29.62 "Hg2 mi
2:00 PM93 °FThunderstorms. Scattered clouds.12 mph53%29.59 "Hg2 mi
1:00 PM93 °FScattered clouds.12 mph53%29.62 "Hg2 mi
12:00 PM93 °FHaze.9 mph53%29.65 "Hg2 mi
11:00 AM91 °FHaze.12 mph46%29.65 "Hg2 mi
10:00 AM88 °FHaze.12 mph59%29.68 "Hg2 mi
9:00 AM86 °FHaze.12 mph62%29.68 "Hg2 mi
8:00 AM84 °FScattered clouds.12 mph66%29.65 "Hg2 mi
7:00 AM81 °FScattered clouds.7 mph62%29.65 "Hg2 mi
6:00 AM81 °FBroken clouds.5 mph66%29.62 "Hg2 mi
5:00 AM79 °FPassing clouds.7 mph70%29.62 "Hg2 mi
4:00 AM79 °FPassing clouds.5 mph70%29.59 "Hg2 mi
3:00 AM79 °FThundershowers. Passing clouds.No wind74%29.59 "Hg2 mi
2:00 AM81 °FHaze.7 mph66%29.62 "Hg2 mi
1:00 AM82 °FHaze.5 mph66%29.62 "Hg2 mi
12:00 AM82 °FHaze.7 mph66%29.62 "Hg2 mi
11:00 PM
Sat, Aug 29
86 °FPassing clouds.7 mph59%29.62 "Hg2 mi
Weather by CustomWeather, © 2015

See weather overviewHow to use our weather pages